Location: Quartzsite
(33.6639°N, 114.2299°W)
Time: 00:16:10
(UTC-07:00)

OTV 5 (USA 277) - Pass Details

Date: 02 June 2018
Orbit: 313 x 320 km, 54.5° (Epoch: 21 June)

Event Time Altitude Azimuth Distance (km) Brightness Sun altitude
Exits shadow 02:50:57 15° 25° (NNE) 981 ? -25.4°
Drops below altitude 10° 02:51:33 10° 29° (NNE) 1,216 ? -25.4°
Sets 02:53:34 0° 37° (NE) 2,050 ? -25.1°
